TimeCDT,TemperatureF,Dew PointF,Humidity,Sea Level PressureIn,VisibilityMPH,Wind Direction,Wind SpeedMPH,Gust SpeedMPH,PrecipitationIn,Events,Conditions,WindDirDegrees,DateUTC
12:15 AM,73.9,71.1,91,29.95,10.0,SE,4.6,-,N/A,,Clear,130,2013-09-28 05:15:00
12:35 AM,73.6,71.6,93,29.94,10.0,ESE,4.6,-,N/A,,Clear,120,2013-09-28 05:35:00
12:55 AM,73.6,71.6,93,29.94,10.0,SE,4.6,-,N/A,,Clear,140,2013-09-28 05:55:00
1:15 AM,73.4,71.8,95,29.95,10.0,Calm,Calm,-,N/A,,Clear,0,2013-09-28 06:15:00
1:35 AM,73.4,71.8,95,29.95,10.0,SSE,3.5,-,N/A,,Clear,150,2013-09-28 06:35:00
1:55 AM,73.4,72.0,95,29.95,10.0,Calm,Calm,-,N/A,,Clear,0,2013-09-28 06:55:00
2:15 AM,74.1,71.4,91,29.95,10.0,SSE,4.6,-,N/A,,Clear,150,2013-09-28 07:15:00
2:35 AM,74.8,69.8,84,29.94,10.0,SSE,5.8,-,N/A,,Clear,150,2013-09-28 07:35:00
2:55 AM,74.8,69.8,84,29.94,10.0,SSE,4.6,-,N/A,,Clear,150,2013-09-28 07:55:00
3:15 AM,74.7,69.8,85,29.94,10.0,SSE,4.6,-,N/A,,Clear,150,2013-09-28 08:15:00
3:35 AM,74.8,69.8,84,29.94,10.0,SE,5.8,-,N/A,,Clear,140,2013-09-28 08:35:00
3:55 AM,74.8,69.8,84,29.94,10.0,SSE,3.5,-,N/A,,Clear,150,2013-09-28 08:55:00
4:15 AM,74.3,70.0,86,29.94,10.0,SE,4.6,-,N/A,,Clear,140,2013-09-28 09:15:00
4:35 AM,73.8,71.1,91,29.94,10.0,SE,3.5,-,N/A,,Clear,130,2013-09-28 09:35:00
4:55 AM,73.4,71.4,93,29.94,10.0,SE,4.6,-,N/A,,Clear,130,2013-09-28 09:55:00
5:15 AM,73.4,71.6,94,29.94,10.0,ESE,3.5,-,N/A,,Clear,120,2013-09-28 10:15:00
5:35 AM,72.9,71.8,96,29.95,10.0,ESE,4.6,-,N/A,,Clear,120,2013-09-28 10:35:00
5:55 AM,73.2,72.3,97,29.95,10.0,SE,3.5,-,N/A,,Clear,130,2013-09-28 10:55:00
6:15 AM,73.4,72.5,97,29.96,10.0,SE,4.6,-,N/A,,Clear,130,2013-09-28 11:15:00
6:35 AM,73.4,72.5,97,29.96,10.0,SE,3.5,-,N/A,,Clear,130,2013-09-28 11:35:00
6:55 AM,73.0,72.5,98,29.97,10.0,ESE,4.6,-,N/A,,Scattered Clouds,120,2013-09-28 11:55:00
7:15 AM,73.4,72.7,98,29.98,10.0,Calm,Calm,-,N/A,,Mostly Cloudy,0,2013-09-28 12:15:00
7:35 AM,74.3,73.4,97,29.98,10.0,Calm,Calm,-,N/A,,Mostly Cloudy,0,2013-09-28 12:35:00
7:55 AM,76.5,73.9,92,29.99,10.0,Calm,Calm,-,N/A,,Overcast,0,2013-09-28 12:55:00
8:15 AM,77.5,72.9,85,29.99,10.0,Calm,Calm,-,N/A,,Overcast,0,2013-09-28 13:15:00
8:35 AM,80.1,72.5,78,30.00,10.0,South,3.5,-,N/A,,Mostly Cloudy,170,2013-09-28 13:35:00
8:55 AM,82.0,72.5,73,30.00,10.0,SE,6.9,-,N/A,,Scattered Clouds,140,2013-09-28 13:55:00
9:15 AM,83.3,72.5,70,30.00,10.0,SSE,4.6,-,N/A,,Clear,160,2013-09-28 14:15:00
9:35 AM,84.7,72.1,66,30.01,10.0,SSE,9.2,-,N/A,,Clear,150,2013-09-28 14:35:00
9:55 AM,83.5,72.3,69,30.01,10.0,South,6.9,-,N/A,,Scattered Clouds,170,2013-09-28 14:55:00
10:15 AM,84.4,71.4,65,30.02,10.0,SSE,9.2,-,N/A,,Scattered Clouds,160,2013-09-28 15:15:00
10:35 AM,85.5,71.2,62,30.02,10.0,South,8.1,-,N/A,,Scattered Clouds,170,2013-09-28 15:35:00
10:55 AM,86.9,70.2,57,30.02,10.0,SE,11.5,-,N/A,,Overcast,140,2013-09-28 15:55:00
11:15 AM,86.5,69.8,57,30.02,10.0,South,9.2,-,N/A,,Overcast,170,2013-09-28 16:15:00
11:35 AM,87.8,69.1,54,30.01,10.0,SSE,9.2,-,N/A,,Mostly Cloudy,160,2013-09-28 16:35:00
11:55 AM,88.0,69.3,54,30.01,10.0,South,8.1,-,N/A,,Scattered Clouds,180,2013-09-28 16:55:00
12:15 PM,87.6,69.4,55,30.01,10.0,SE,10.4,18.4,N/A,,Scattered Clouds,130,2013-09-28 17:15:00
12:35 PM,88.3,68.2,51,30.00,10.0,SSE,10.4,-,N/A,,Scattered Clouds,160,2013-09-28 17:35:00
12:55 PM,88.9,68.4,51,29.99,10.0,SE,10.4,-,N/A,,Scattered Clouds,140,2013-09-28 17:55:00
1:15 PM,89.4,68.2,49,30.00,10.0,SSE,8.1,-,N/A,,Scattered Clouds,150,2013-09-28 18:15:00
1:35 PM,88.3,68.0,51,29.99,10.0,SSE,10.4,-,N/A,,Mostly Cloudy,160,2013-09-28 18:35:00
1:55 PM,88.7,68.4,51,29.98,10.0,South,8.1,-,N/A,,Mostly Cloudy,170,2013-09-28 18:55:00
2:15 PM,87.8,69.6,55,29.97,10.0,SSE,5.8,-,N/A,,Overcast,160,2013-09-28 19:15:00
2:35 PM,88.2,69.6,54,29.97,10.0,SSE,10.4,-,N/A,,Overcast,150,2013-09-28 19:35:00
2:55 PM,87.1,68.7,54,29.96,10.0,SE,9.2,-,N/A,,Overcast,130,2013-09-28 19:55:00
3:15 PM,88.5,69.4,53,29.95,10.0,South,11.5,-,N/A,,Mostly Cloudy,170,2013-09-28 20:15:00
3:35 PM,86.9,69.8,57,29.95,10.0,SSE,6.9,-,N/A,,Overcast,150,2013-09-28 20:35:00
3:55 PM,87.1,70.2,57,29.96,10.0,South,8.1,-,N/A,,Overcast,180,2013-09-28 20:55:00
4:15 PM,87.8,70.3,56,29.95,10.0,SSE,9.2,-,N/A,,Mostly Cloudy,160,2013-09-28 21:15:00
4:35 PM,86.0,70.0,59,29.95,10.0,South,9.2,-,N/A,,Scattered Clouds,170,2013-09-28 21:35:00
4:55 PM,86.9,69.6,56,29.95,10.0,SSE,8.1,-,N/A,,Mostly Cloudy,160,2013-09-28 21:55:00
5:15 PM,85.1,70.0,60,29.94,10.0,SE,10.4,-,N/A,,Overcast,140,2013-09-28 22:15:00
5:35 PM,84.6,70.5,63,29.94,10.0,SE,10.4,-,N/A,,Overcast,140,2013-09-28 22:35:00
5:55 PM,83.8,70.5,64,29.94,10.0,South,10.4,-,N/A,,Overcast,170,2013-09-28 22:55:00
6:15 PM,82.8,70.7,67,29.95,10.0,South,6.9,-,N/A,,Overcast,170,2013-09-28 23:15:00
6:35 PM,82.4,70.3,67,29.96,10.0,South,6.9,-,N/A,,Overcast,170,2013-09-28 23:35:00
6:55 PM,81.9,70.9,69,29.97,10.0,South,5.8,-,N/A,,Overcast,170,2013-09-28 23:55:00
7:15 PM,81.5,71.1,70,29.97,10.0,South,5.8,-,N/A,,Overcast,180,2013-09-29 00:15:00
7:35 PM,79.7,72.7,79,29.98,10.0,Calm,Calm,-,N/A,Rain,Light Rain,0,2013-09-29 00:35:00
7:55 PM,79.9,72.7,79,29.98,10.0,Calm,Calm,-,N/A,,Overcast,0,2013-09-29 00:55:00
8:15 PM,79.9,72.7,79,29.99,10.0,SSE,3.5,-,N/A,,Overcast,150,2013-09-29 01:15:00
8:35 PM,79.9,72.7,79,30.00,10.0,South,4.6,-,N/A,,Overcast,190,2013-09-29 01:35:00
8:55 PM,78.6,71.6,79,30.00,10.0,South,8.1,-,N/A,,Overcast,170,2013-09-29 01:55:00
9:15 PM,77.5,68.2,73,30.01,10.0,SE,8.1,-,N/A,,Overcast,140,2013-09-29 02:15:00
9:35 PM,77.9,68.2,72,30.01,10.0,SSE,5.8,-,N/A,,Mostly Cloudy,150,2013-09-29 02:35:00
9:55 PM,78.8,68.9,72,30.00,10.0,SE,6.9,-,N/A,,Overcast,140,2013-09-29 02:55:00
10:15 PM,78.6,70.9,77,30.00,10.0,SE,5.8,-,N/A,,Mostly Cloudy,140,2013-09-29 03:15:00
10:35 PM,78.8,72.0,79,30.00,10.0,SE,5.8,-,N/A,,Scattered Clouds,130,2013-09-29 03:35:00
10:55 PM,79.3,72.5,79,30.01,10.0,ESE,4.6,-,N/A,,Mostly Cloudy,120,2013-09-29 03:55:00
11:15 PM,79.0,72.7,81,30.00,10.0,SE,8.1,-,N/A,,Mostly Cloudy,130,2013-09-29 04:15:00
11:35 PM,78.8,72.9,82,30.00,10.0,Calm,Calm,-,N/A,,Scattered Clouds,0,2013-09-29 04:35:00
11:55 PM,77.2,74.7,92,30.00,10.0,Calm,Calm,-,N/A,,Clear,0,2013-09-29 04:55:00